Date String (YYYY-MM-DD hh:mm:ss) UTC,Instrument flags,absolute air pressure of the measurement (hPa),sample flow rate (lpm),inlet stack bypass flow (lpm),air temperature of the measurement (°C),ambient temperature measured by the external sensor (°C),aerosol sample conditioner tube jacket temperature (°C),OPC LED temperature (°C),internal box temperature (°C),relative humidity of the measurement (%),span deviation,mass concentration of particles derived from Lorenz-Mie calculation of OPC scattering (μg/m³),mass concentration of particles derived from Lorenz-Mie calculation of OPC scattering (μg/m³),mass concentration of particles derived from Lorenz-Mie calculation of OPC scattering (μg/m³)
DateTimeUTC,F1_M11,P_M11,Q1_M11,Q2_M11,T1_M11,T2_M11,T3_M11,T4_M11,T5_M11,U1_M11,ZSPAN_M11,X0_M11,X2_M11,X1_M11
2023-12-07 21:00:00,SystemResetWarning,0818.0,5.00,000.00,024.9,024.1,000.0,033.2,026.4,10.4,0000.0,0002.57,0001.16,0000.73
2023-12-07 21:01:00,SystemResetWarning,0818.0,5.00,000.00,025.0,024.1,000.0,033.2,026.3,10.4,0000.0,0002.93,0001.13,0000.73
2023-12-07 21:02:00,SystemResetWarning,0818.1,4.99,000.00,025.0,024.1,000.0,033.2,026.4,10.5,0000.0,0002.99,0001.13,0000.73
2023-12-07 21:03:00,SystemResetWarning,0818.0,4.99,000.00,025.0,024.1,000.0,033.2,026.4,10.5,0000.0,0003.03,0001.14,0000.74
2023-12-07 21:04:00,SystemResetWarning,0818.0,5.00,000.00,025.0,024.2,000.0,033.2,026.4,10.6,0000.0,0003.07,0001.14,0000.74
2023-12-07 21:05:00,SystemResetWarning,0817.9,5.00,000.00,025.0,024.2,000.0,033.2,026.4,10.5,0000.0,0003.01,0001.12,0000.74
2023-12-07 21:06:00,SystemResetWarning,0818.0,5.00,000.00,025.0,024.2,000.0,033.2,026.4,10.0,0000.0,0002.99,0001.11,0000.73
2023-12-07 21:07:00,SystemResetWarning,0818.1,5.00,000.00,025.0,024.2,000.0,033.2,026.4,10.0,0000.0,0002.76,0001.10,0000.73
2023-12-07 21:08:00,SystemResetWarning,0818.1,5.00,000.00,025.0,024.2,000.0,033.3,026.4,10.0,0000.0,0002.60,0001.08,0000.73
2023-12-07 21:09:00,SystemResetWarning,0818.0,4.99,000.00,025.1,024.2,000.0,033.3,026.5,10.3,0000.0,0002.51,0001.05,0000.73
2023-12-07 21:10:00,SystemResetWarning,0818.2,5.00,000.00,025.1,024.2,000.0,033.3,026.5,10.4,0000.0,0002.43,0001.03,0000.74
2023-12-07 21:11:00,SystemResetWarning,0818.1,4.99,000.00,025.1,024.2,000.0,033.3,026.5,10.4,0000.0,0002.40,0001.02,0000.74
2023-12-07 21:12:00,SystemResetWarning,0818.0,4.99,000.00,025.1,024.3,000.0,033.3,026.5,10.6,0000.0,0002.44,0001.07,0000.75
2023-12-07 21:13:00,SystemResetWarning,0818.1,5.01,000.00,025.1,024.3,000.0,033.3,026.4,10.4,0000.0,0002.05,0001.11,0000.75
2023-12-07 21:14:00,SystemResetWarning,0818.0,5.01,000.00,025.1,024.3,000.0,033.3,026.5,10.5,0000.0,0002.37,0001.10,0000.75
2023-12-07 21:15:00,SystemResetWarning,0818.2,4.99,000.00,025.1,024.3,000.0,033.3,026.5,10.4,0000.0,0002.28,0001.09,0000.75
2023-12-07 21:16:00,SystemResetWarning,0818.2,5.00,000.00,025.1,024.3,000.0,033.3,026.5,10.6,0000.0,0002.24,0001.09,0000.75
2023-12-07 21:17:00,SystemResetWarning,0818.3,5.00,000.00,025.1,024.3,000.0,033.3,026.5,10.7,0000.0,0002.23,0001.08,0000.76
2023-12-07 21:18:00,SystemResetWarning,0818.3,5.00,000.00,025.1,024.3,000.0,033.3,026.5,10.5,0000.0,0002.24,0001.07,0000.76
2023-12-07 21:19:00,SystemResetWarning,0818.3,5.00,000.00,025.1,024.3,000.0,033.3,026.5,10.3,0000.0,0002.18,0001.08,0000.76
2023-12-07 21:20:00,SystemResetWarning,0818.3,5.00,000.00,025.1,024.3,000.0,033.4,026.5,10.3,0000.0,0002.17,0001.09,0000.76
2023-12-07 21:21:00,SystemResetWarning,0818.4,5.00,000.00,025.1,024.3,000.0,033.4,026.5,10.0,0000.0,0002.24,0001.10,0000.77
2023-12-07 21:22:00,SystemResetWarning,0818.4,5.00,000.00,025.1,024.3,000.0,033.4,026.5,10.3,0000.0,0002.30,0001.10,0000.77
2023-12-07 21:23:00,SystemResetWarning,0818.5,5.01,000.00,025.2,024.3,000.0,033.4,026.5,10.4,0000.0,0002.39,0001.12,0000.77
2023-12-07 21:24:00,SystemResetWarning,0818.6,5.00,000.00,025.2,024.3,000.0,033.4,026.5,10.4,0000.0,0002.23,0001.06,0000.78
2023-12-07 21:25:00,SystemResetWarning,0818.7,5.00,000.00,025.2,024.3,000.0,033.4,026.5,10.7,0000.0,0001.91,0001.05,0000.79
2023-12-07 21:26:00,SystemResetWarning,0818.5,4.99,000.00,025.2,024.3,000.0,033.4,026.6,10.7,0000.0,0001.89,0001.06,0000.79
2023-12-07 21:27:00,SystemResetWarning,0818.5,5.00,000.00,025.2,024.3,000.0,033.4,026.6,10.7,0000.0,0002.17,0001.11,0000.79
2023-12-07 21:28:00,SystemResetWarning,0818.6,5.01,000.00,025.2,024.3,000.0,033.4,026.6,10.6,0000.0,0002.43,0001.15,0000.79
2023-12-07 21:29:00,SystemResetWarning,0818.5,5.00,000.00,025.2,024.3,000.0,033.4,026.6,10.6,0000.0,0002.45,0001.16,0000.79
2023-12-07 21:30:00,SystemResetWarning,0818.6,5.01,000.00,025.2,024.3,000.0,033.4,026.6,10.6,0000.0,0002.53,0001.17,0000.79
2023-12-07 21:31:00,SystemResetWarning,0818.6,5.01,000.00,025.2,024.4,000.0,033.4,026.6,10.1,0000.0,0002.93,0001.18,0000.79
2023-12-07 21:32:00,SystemResetWarning,0818.6,5.00,000.00,025.2,024.4,000.0,033.5,026.6,10.0,0000.0,0002.93,0001.18,0000.79
2023-12-07 21:33:00,SystemResetWarning,0818.6,5.00,000.00,025.2,024.4,000.0,033.5,026.6,9.9,0000.0,0002.95,0001.16,0000.79
2023-12-07 21:34:00,SystemResetWarning,0818.6,5.00,000.00,025.3,024.4,000.0,033.5,026.6,9.8,0000.0,0003.65,0001.13,0000.78
2023-12-07 21:35:00,SystemResetWarning,0818.6,5.00,000.00,025.3,024.4,000.0,033.5,026.6,10.0,0000.0,0004.07,0001.13,0000.78
2023-12-07 21:36:00,SystemResetWarning,0818.7,5.01,000.00,025.3,024.4,000.0,033.5,026.6,10.3,0000.0,0005.44,0001.15,0000.80
2023-12-07 21:37:00,SystemResetWarning,0818.7,5.00,000.00,025.3,024.4,000.0,033.5,026.6,10.1,0000.0,0005.46,0001.14,0000.81
2023-12-07 21:38:00,SystemResetWarning,0818.7,5.01,000.00,025.3,024.4,000.0,033.5,026.6,10.3,0000.0,0007.03,0001.08,0000.81
2023-12-07 21:39:00,SystemResetWarning,0818.6,5.01,000.00,025.3,024.4,000.0,033.5,026.6,10.5,0000.0,0007.24,0001.08,0000.81
2023-12-07 21:40:00,SystemResetWarning,0818.7,5.00,000.00,025.3,024.4,000.0,033.5,026.6,10.5,0000.0,0007.17,0001.09,0000.83
2023-12-07 21:41:00,SystemResetWarning,0818.7,5.00,000.00,025.3,024.4,000.0,033.5,026.6,10.3,0000.0,0007.14,0001.08,0000.84
2023-12-07 21:42:00,SystemResetWarning,0818.6,4.99,000.00,025.3,024.4,000.0,033.5,026.6,10.2,0000.0,0006.75,0001.09,0000.84
2023-12-07 21:43:00,SystemResetWarning,0818.6,4.99,000.00,025.3,024.4,000.0,033.6,026.6,10.3,0000.0,0006.78,0001.12,0000.85
2023-12-07 21:44:00,SystemResetWarning,0818.6,4.99,000.00,025.3,024.4,000.0,033.6,026.7,10.0,0000.0,0006.77,0001.13,0000.86
2023-12-07 21:45:00,SystemResetWarning,0818.7,4.99,000.00,025.3,024.4,000.0,033.6,026.7,10.0,0000.0,0006.39,0001.14,0000.86
2023-12-07 21:46:00,SystemResetWarning,0818.8,5.00,000.00,025.3,024.4,000.0,033.6,026.7,10.1,0000.0,0005.92,0001.13,0000.86
2023-12-07 21:47:00,SystemResetWarning,0818.7,5.00,000.00,025.3,024.5,000.0,033.6,026.7,10.2,0000.0,0004.85,0001.13,0000.85
2023-12-07 21:48:00,SystemResetWarning,0818.7,5.01,000.00,025.3,024.5,000.0,033.6,026.7,10.3,0000.0,0004.03,0001.08,0000.83
2023-12-07 21:49:00,SystemResetWarning,0818.7,5.00,000.00,025.3,024.5,000.0,033.6,026.7,10.2,0000.0,0003.51,0001.09,0000.83
2023-12-07 21:50:00,SystemResetWarning,0818.7,5.01,000.00,025.4,024.5,000.0,033.6,026.8,9.9,0000.0,0001.72,0001.08,0000.83
2023-12-07 21:51:00,SystemResetWarning,0818.7,5.00,000.00,025.4,024.5,000.0,033.6,026.8,9.8,0000.0,0001.63,0001.04,0000.83
2023-12-07 21:52:00,SystemResetWarning,0818.7,5.00,000.00,025.4,024.5,000.0,033.6,026.8,10.0,0000.0,0001.71,0001.02,0000.82
2023-12-07 21:53:00,SystemResetWarning,0818.7,4.99,000.00,025.4,024.6,000.0,033.6,026.8,10.3,0000.0,0001.73,0001.00,0000.81
2023-12-07 21:54:00,SystemResetWarning,0818.7,4.99,000.00,025.4,024.6,000.0,033.6,026.8,10.3,0000.0,0001.70,0000.98,0000.81
2023-12-07 21:55:00,SystemResetWarning,0818.6,5.00,000.00,025.4,024.6,000.0,033.7,026.8,10.3,0000.0,0001.66,0000.97,0000.81
2023-12-07 21:56:00,SystemResetWarning,0818.6,5.00,000.00,025.5,024.6,000.0,033.7,026.9,10.1,0000.0,0001.72,0000.99,0000.82
2023-12-07 21:57:00,SystemResetWarning,0818.7,5.01,000.00,025.5,024.7,000.0,033.7,026.9,10.1,0000.0,0001.62,0000.99,0000.83
2023-12-07 21:58:00,SystemResetWarning,0818.7,5.00,000.00,025.5,024.7,000.0,033.7,026.9,10.0,0000.0,0001.95,0001.01,0000.83
2023-12-07 21:59:00,SystemResetWarning,0818.7,5.00,000.00,025.5,024.7,000.0,033.7,027.0,10.1,0000.0,0002.36,0001.07,0000.84
